Location: Madden
(51.3728°N, 114.3297°W)
Time: 20:09:29
(UTC+00:00)

RS-44 - Pass Details

Date: 08 December 2023
Orbit: 1175 x 1509 km, 82.5° (Epoch: 29 February)

Event Time Altitude Azimuth Distance (km) Brightness Sun altitude
Rises 02:50:34 0° 351° (N) 4,180 ? -30.1°
Reaches altitude 10° 02:54:41 10° 12° (NNE) 3,164 ? -30.8°
Enters shadow 02:54:50 10° 13° (NNE) 3,135 ? -30.8°
